Location: St. Louis
(38.6270°N, 90.1994°W)
Time: 20:17:07
(UTC-06:00)

Vanguard 3 - Pass Details

Date: 07 December 2021
Orbit: 508 x 3260 km, 33.3° (Epoch: 19 January)

Event Time Altitude Azimuth Distance (km) Brightness Sun altitude
Exits shadow 03:10:41 60° 198° (SSW) 3,578 10.0 -45.1°
Maximum altitude 03:14:03 65° 162° (SSE) 3,459 10.0 -44.4°
Drops below altitude 10° 03:31:49 10° 86° (E) 5,494 12.0 -40.9°
Sets 03:35:31 0° 84° (E) 6,235 12.5 -40.2°
